Temp
10 9 9 8 7 6 7 6 6 5 3 1 2 0 -1 -3 -5 -5 -4 -4 -4 -5 -5 -5 -5 -5 -5 -5 -4 -5 -6 -6 -6 -6 -6 -6 -6 -6 -7 -7 -7 -8 -8 -8
9 9 7 7 6 7 7 6 5 4 2 2 0 -0 -2 -4 -5 -5 -5 -5 -5 -5 -4 -5 -5 -5 -4 -5 -5 -6 -6 -6 -6 -7 -6 -6 -6 -7 -7 -7 -7 -8 -8 -8
9 7 6 6 7 7 6 5 3 2 2 1 0 -2 -4 -5 -6 -5 -4 -4 -4 -5 -5 -5 -5 -4 -5 -5 -6 -6 -6 -6 -6 -7 -6 -5 -6 -6 -6 -7 -7 -7 -8 -8
8 6 6 6 6 6 5 5 4 4 2 2 0 -2 -5 -5 -5 -3 -4 -4 -5 -5 -5 -5 -4 -5 -5 -5 -6 -6 -6 -6 -6 -6 -6 -6 -6 -6 -6 -6 -7 -7 -8 -8
7 6 6 6 5 5 4 6 6 5 4 1 1 -0 -5 -5 -4 -4 -5 -5 -5 -6 -6 -5 -5 -6 -6 -6 -5 -5 -5 -5 -5 -5 -5 -6 -6 -6 -6 -7 -6 -7 -8 -8
6 5 5 4 4 3 4 6 5 4 3 1 0 0 -6 -6 -7 -5 -5 -5 -6 -6 -6 -5 -5 -5 -5 -5 -5 -5 -5 -5 -5 -5 -5 -6 -6 -7 -6 -7 -7 -7 -7 -8
5 5 4 4 4 3 4 5 3 1 -0 -0 0 -1 -7 -7 -6 -6 -6 -6 -6 -6 -6 -6 -6 -5 -5 -6 -5 -5 -5 -5 -5 -6 -6 -7 -7 -7 -7 -7 -6 -7 -7 -7
5 5 3 2 2 2 1 1 -0 -1 -3 -2 -1 -4 -7 -6 -6 -5 -5 -6 -6 -6 -7 -6 -6 -6 -6 -6 -6 -6 -6 -6 -6 -6 -6 -6 -7 -7 -7 -6 -6 -7 -7 -8
5 3 2 2 2 2 1 -0 -2 -3 -2 -4 -3 -5 -6 -6 -5 -5 -6 -6 -5 -6 -6 -6 -6 -7 -7 -6 -6 -6 -5 -5 -5 -6 -6 -7 -7 -7 -7 -7 -6 -6 -7 -8
4 3 2 2 1 1 1 -0 -1 -2 -8 -7 -4 -6 -8 -7 -6 -6 -6 -6 -7 -6 -6 -6 -6 -7 -6 -5 -5 -5 -5 -5 -6 -6 -8 -7 -8 -7 -7 -7 -7 -8 -6 -6
4 3 2 1 0 -0 1 -0 -2 -3 -4 -7 -10 -7 -8 -7 -7 -7 -7 -7 -8 -8 -7 -6 -6 -7 -5 -5 -5 -5 -5 -6 -6 -6 -8 -7 -7 -7 -7 -6 -6 -7 -5 -6
4 3 2 0 -1 -1 -1 -2 -3 -4 -4 -6 -7 -6 -7 -6 -8 -7 -7 -8 -8 -8 -7 -7 -7 -7 -5 -5 -5 -5 -5 -6 -6 -7 -8 -7 -7 -6 -6 -6 -6 -6 -5 -6
4 3 1 0 -1 -1 -1 -2 -4 -5 -6 -7 -8 -4 -7 -8 -7 -7 -7 -8 -9 -7 -6 -6 -6 -5 -5 -5 -5 -5 -5 -6 -6 -7 -8 -7 -7 -6 -6 -7 -7 -6 -5 -6
3 2 1 -0 -1 -2 -2 -2 -3 -4 -6 -7 -6 -8 -8 -8 -7 -7 -8 -8 -8 -7 -6 -6 -6 -5 -5 -5 -5 -5 -5 -5 -5 -7 -7 -7 -7 -7 -7 -8 -8 -7 -6 -6
3 2 1 0 -1 -1 -1 -2 -3 -4 -6 -7 -7 -8 -8 -8 -8 -8 -8 -8 -7 -6 -5 -6 -5 -5 -5 -5 -5 -5 -5 -5 -6 -7 -7 -7 -6 -7 -7 -8 -8 -8 -7 -7
3 2 1 1 -1 -1 -1 -1 -3 -4 -6 -6 -7 -7 -8 -8 -8 -7 -8 -8 -7 -7 -6 -6 -6 -5 -5 -5 -5 -5 -5 -5 -6 -6 -7 -7 -6 -7 -6 -7 -8 -8 -8 -7
3 2 1 0 -1 -1 -1 -2 -3 -4 -5 -6 -7 -8 -8 -8 -8 -8 -8 -7 -7 -7 -6 -6 -6 -5 -5 -5 -5 -5 -5 -5 -6 -6 -6 -6 -6 -6 -6 -7 -8 -8 -8 -8
3 2 1 -0 -1 -4 -1 -2 -3 -3 -4 -6 -7 -7 -8 -8 -8 -8 -8 -8 -8 -7 -6 -6 -6 -5 -5 -5 -5 -5 -4 -5 -6 -6 -6 -6 -6 -6 -6 -6 -7 -8 -8 -8
3 2 1 0 -1 -1 -1 -2 -2 -3 -4 -6 -7 -8 -8 -8 -7 -7 -7 -8 -8 -7 -7 -7 -7 -5 -5 -5 -4 -4 -4 -5 -5 -6 -5 -5 -6 -6 -6 -6 -6 -6 -6 -6
3 2 1 -0 -2 -3 -1 -2 -2 -3 -4 -6 -7 -7 -8 -8 -7 -8 -7 -7 -7 -7 -7 -6 -6 -5 -5 -4 -4 -4 -4 -4 -5 -5 -6 -5 -6 -6 -6 -6 -6 -6 -6 -7
3 2 1 0 -1 -1 -1 -2 -2 -3 -4 -5 -6 -7 -8 -8 -9 -9 -7 -7 -7 -7 -6 -6 -5 -4 -5 -4 -4 -4 -4 -4 -5 -6 -6 -5 -5 -6 -6 -6 -6 -7 -7 -7
3 2 1 -0 -1 0 -1 -2 -2 -3 -3 -4 -6 -7 -8 -8 -8 -8 -7 -7 -6 -6 -6 -5 -4 -4 -4 -4 -4 -4 -4 -4 -5 -5 -6 -6 -5 -5 -6 -6 -6 -7 -7 -7
3 2 1 1 1 0 -1 -2 -2 -2 -2 -3 -5 -7 -8 -8 -8 -8 -7 -7 -7 -6 -6 -5 -4 -4 -4 -4 -4 -4 -4 -4 -4 -5 -5 -5 -5 -5 -5 -5 -5 -5 -6 -6
4 3 2 1 1 -0 -1 -1 -2 -2 -2 -3 -5 -7 -8 -8 -8 -8 -7 -7 -6 -6 -6 -5 -4 -4 -4 -4 -4 -4 -4 -4 -4 -5 -5 -5 -5 -5 -5 -4 -5 -5 -6 -6
4 3 2 2 1 1 -0 -1 -2 -2 -2 -3 -5 -6 -8 -8 -9 -8 -7 -7 -6 -6 -5 -5 -4 -4 -4 -4 -4 -4 -4 -4 -4 -5 -5 -5 -5 -4 -4 -4 -5 -5 -6 -6
5 4 3 2 1 1 -0 -1 -2 -2 -2 -3 -4 -6 -8 -8 -9 -8 -7 -7 -6 -5 -5 -5 -4 -4 -3 -4 -4 -4 -4 -4 -4 -4 -4 -5 -5 -4 -4 -5 -5 -5 -6 -7
Height
3187 3187 3184 3184 3183 3182 3179 3177 3174 3172 3169 3164 3162 3161 3160 3158 3155 3150 3147 3143 3133 3126 3118 3110 3100 3091 3082 3073 3063 3053 3042 3034 3025 3017 3009 3005 2999 2994 2991 2987 2983 2980 2978 2976
3188 3185 3184 3184 3183 3180 3177 3175 3171 3168 3167 3163 3159 3159 3157 3157 3153 3150 3147 3138 3130 3122 3114 3103 3095 3087 3077 3065 3054 3044 3033 3024 3015 3007 3000 2994 2987 2982 2977 2974 2970 2967 2964 2962
3187 3187 3186 3184 3181 3177 3173 3170 3166 3165 3164 3161 3160 3159 3159 3158 3153 3151 3146 3137 3129 3118 3108 3098 3090 3081 3069 3059 3047 3036 3026 3016 3008 2999 2991 2985 2980 2974 2969 2965 2959 2956 2953 2949
3188 3187 3186 3183 3179 3175 3171 3167 3162 3161 3161 3162 3161 3163 3158 3155 3152 3149 3141 3134 3124 3115 3106 3096 3086 3076 3066 3055 3043 3032 3022 3013 3004 2996 2987 2979 2971 2965 2960 2953 2948 2944 2942 2938
3191 3188 3184 3180 3178 3174 3171 3163 3160 3158 3158 3161 3163 3159 3158 3154 3148 3143 3139 3130 3122 3113 3103 3092 3083 3074 3064 3053 3041 3030 3020 3011 3002 2994 2985 2976 2968 2961 2954 2947 2940 2935 2931 2928
3188 3185 3184 3182 3179 3175 3171 3163 3159 3159 3159 3162 3161 3159 3158 3152 3150 3144 3139 3130 3120 3110 3100 3091 3084 3074 3064 3053 3042 3032 3019 3010 3001 2991 2983 2973 2964 2956 2949 2942 2934 2928 2922 2919
3187 3186 3184 3183 3179 3175 3170 3162 3160 3162 3162 3163 3158 3154 3161 3156 3152 3146 3136 3128 3119 3109 3097 3088 3079 3070 3060 3049 3039 3030 3019 3008 3000 2990 2980 2969 2960 2951 2944 2937 2929 2922 2915 2910
3188 3184 3185 3183 3180 3177 3172 3171 3171 3173 3171 3163 3158 3157 3158 3155 3152 3147 3138 3127 3118 3105 3095 3087 3078 3068 3058 3048 3037 3028 3018 3007 2998 2988 2978 2967 2957 2947 2940 2933 2924 2917 2910 2904
3189 3188 3187 3184 3183 3180 3177 3173 3173 3172 3169 3165 3159 3158 3156 3152 3148 3140 3132 3122 3112 3102 3093 3085 3076 3066 3056 3046 3037 3026 3016 3007 2997 2985 2974 2964 2953 2944 2937 2930 2923 2914 2905 2897
3190 3188 3187 3186 3184 3182 3179 3179 3176 3175 3177 3172 3158 3158 3156 3147 3141 3135 3127 3118 3109 3099 3091 3084 3074 3065 3055 3046 3036 3028 3017 3006 2995 2984 2973 2961 2950 2942 2934 2927 2920 2912 2902 2894
3190 3189 3188 3186 3184 3182 3181 3179 3179 3178 3177 3177 3171 3160 3155 3149 3143 3134 3128 3119 3109 3099 3091 3082 3073 3064 3055 3047 3036 3026 3016 3005 2994 2982 2972 2961 2950 2941 2933 2925 2919 2910 2901 2893
3191 3188 3186 3186 3185 3183 3182 3180 3179 3177 3178 3175 3173 3162 3155 3151 3145 3136 3127 3118 3109 3101 3091 3081 3073 3063 3055 3046 3036 3026 3015 3005 2994 2982 2974 2963 2952 2942 2933 2925 2918 2910 2902 2894
3192 3189 3187 3185 3188 3185 3183 3181 3178 3176 3173 3172 3172 3160 3156 3148 3142 3135 3126 3116 3107 3099 3090 3080 3072 3063 3054 3045 3035 3026 3015 3005 2995 2984 2976 2966 2955 2945 2934 2925 2918 2911 2904 2898
3191 3189 3188 3189 3187 3186 3183 3181 3179 3176 3173 3171 3166 3156 3151 3145 3138 3132 3124 3115 3108 3098 3088 3079 3072 3062 3055 3046 3036 3027 3017 3009 2998 2987 2977 2967 2958 2947 2936 2928 2921 2914 2908 2902
3191 3189 3186 3185 3185 3184 3182 3181 3179 3174 3172 3168 3164 3156 3149 3144 3137 3130 3122 3114 3106 3096 3087 3079 3071 3064 3056 3047 3039 3030 3022 3012 3000 2990 2980 2970 2961 2952 2942 2933 2925 2919 2913 2907
3191 3189 3186 3184 3184 3182 3181 3180 3177 3173 3170 3167 3163 3157 3150 3145 3140 3132 3121 3113 3103 3095 3086 3080 3073 3066 3058 3050 3041 3032 3025 3014 3003 2995 2984 2974 2965 2957 2947 2938 2929 2922 2916 2912
3190 3187 3184 3183 3182 3181 3182 3179 3176 3173 3168 3164 3159 3154 3147 3144 3137 3129 3122 3113 3103 3095 3086 3080 3074 3067 3060 3052 3044 3035 3027 3018 3009 3000 2990 2980 2971 2962 2954 2943 2935 2926 2919 2915
3189 3186 3184 3182 3181 3182 3181 3178 3174 3170 3165 3162 3159 3153 3146 3142 3139 3132 3122 3112 3104 3096 3088 3081 3075 3070 3064 3057 3050 3041 3032 3024 3015 3005 2996 2986 2979 2969 2962 2953 2943 2934 2927 2921
3188 3186 3183 3183 3180 3181 3178 3177 3174 3169 3164 3160 3154 3149 3145 3141 3138 3133 3123 3115 3106 3096 3091 3084 3078 3072 3067 3060 3053 3046 3038 3030 3020 3009 3004 2994 2986 2978 2971 2962 2952 2945 2940 2932
3188 3185 3185 3181 3179 3179 3177 3175 3170 3165 3162 3157 3151 3148 3142 3137 3132 3126 3120 3113 3106 3099 3091 3085 3079 3075 3071 3064 3058 3050 3042 3035 3025 3015 3010 3003 2994 2987 2978 2971 2963 2956 2949 2942
3187 3184 3183 3180 3178 3177 3176 3173 3171 3168 3169 3157 3151 3146 3142 3138 3135 3128 3121 3116 3107 3099 3091 3086 3082 3077 3073 3067 3062 3055 3047 3039 3031 3024 3019 3012 3002 2996 2988 2981 2974 2967 2959 2952
3186 3184 3181 3179 3178 3178 3176 3173 3172 3168 3161 3155 3151 3146 3142 3139 3136 3129 3122 3114 3106 3099 3093 3086 3083 3079 3075 3071 3066 3059 3051 3045 3039 3032 3027 3020 3012 3004 2998 2991 2984 2977 2970 2962
3184 3184 3183 3181 3179 3176 3174 3171 3168 3164 3159 3155 3150 3146 3141 3138 3133 3127 3120 3114 3106 3099 3093 3087 3085 3082 3078 3074 3069 3063 3056 3051 3045 3039 3033 3028 3021 3014 3007 3000 2993 2987 2980 2971
3182 3180 3179 3177 3175 3172 3170 3168 3165 3161 3158 3154 3149 3144 3140 3137 3132 3127 3121 3114 3108 3100 3094 3089 3086 3084 3081 3077 3072 3067 3062 3057 3051 3046 3040 3035 3030 3023 3017 3010 3004 2997 2990 2982
3180 3177 3176 3174 3172 3170 3168 3166 3163 3160 3157 3153 3149 3143 3140 3136 3131 3126 3121 3115 3109 3101 3094 3090 3087 3085 3083 3079 3076 3072 3067 3062 3056 3051 3046 3041 3036 3030 3024 3019 3012 3006 2998 2992
3176 3174 3173 3171 3169 3167 3166 3163 3161 3159 3156 3153 3148 3143 3138 3135 3130 3125 3120 3114 3108 3101 3096 3092 3087 3087 3086 3083 3079 3076 3071 3066 3061 3056 3052 3047 3042 3038 3033 3027 3021 3016 3009 3004
Wind_Speed
8 9 15 14 13 13 12 10 13 21 8 20 22 15 11 13 15 20 28 44 44 44 45 46 46 46 49 49 49 50 50 47 46 46 47 46 47 46 44 45 45 43 42 38
9 14 13 14 13 17 10 7 21 12 10 11 11 12 12 11 10 20 33 45 46 47 47 47 48 49 49 53 54 51 49 48 47 47 47 46 47 45 43 39 38 36 35 35
10 12 14 15 19 18 13 18 26 15 7 7 7 4 7 7 12 20 41 44 45 48 49 49 49 49 52 52 51 49 46 44 43 42 42 40 40 39 39 36 35 31 31 32
9 15 12 16 22 20 17 26 17 5 3 2 4 2 3 8 16 27 47 47 48 49 47 47 47 48 49 50 51 49 45 41 39 39 38 37 38 37 37 38 36 33 29 29
11 14 15 24 25 23 26 24 8 4 3 4 4 5 7 16 26 32 48 48 48 48 46 47 47 45 46 50 50 45 41 40 38 38 38 37 36 36 36 36 36 34 30 27
14 18 20 26 22 20 26 20 5 5 3 3 11 5 16 23 31 37 49 46 48 46 46 45 43 41 42 44 47 46 44 43 43 43 41 38 37 36 34 34 35 35 33 27
13 12 19 26 23 18 28 30 8 5 5 2 16 5 9 19 31 41 47 46 47 44 48 47 42 42 44 45 47 46 46 44 43 44 44 41 35 35 35 34 35 36 34 30
11 7 18 24 24 16 25 23 9 3 3 10 12 3 3 23 32 41 38 42 43 46 48 45 39 40 43 45 46 46 46 42 41 40 42 42 36 33 29 34 36 37 37 29
11 6 13 20 18 24 11 18 14 4 6 5 3 5 10 23 35 41 40 42 43 47 48 43 37 39 43 44 44 46 44 42 44 39 42 45 43 36 30 32 32 38 34 23
13 5 9 15 12 20 19 23 8 8 4 5 7 5 17 40 48 42 42 45 47 48 46 41 38 40 44 43 41 43 42 43 42 38 44 47 43 35 29 28 32 37 30 23
11 11 11 12 12 18 20 21 14 4 3 1 4 1 16 38 39 42 40 43 49 51 45 40 38 39 41 41 42 43 44 44 42 40 46 46 41 35 36 31 30 35 30 25
11 8 8 10 8 14 18 16 20 5 6 3 5 8 13 38 35 34 36 44 49 46 41 39 37 39 40 42 43 44 45 44 43 38 45 45 42 39 37 33 31 33 29 25
11 9 7 6 4 12 14 13 18 13 9 3 2 10 33 35 30 31 39 45 49 44 38 37 36 37 40 41 44 45 44 44 43 37 37 42 45 44 40 34 30 32 27 23
10 10 10 4 8 9 12 10 17 21 7 16 14 31 35 34 32 36 41 46 46 42 38 38 37 37 39 41 44 44 44 42 43 43 38 40 41 44 41 32 30 32 28 22
12 10 13 9 8 11 8 9 16 21 17 11 26 29 30 29 31 36 40 43 44 42 38 38 38 36 38 41 42 43 42 41 41 44 44 42 39 40 38 35 30 29 29 24
14 13 12 7 11 11 6 10 16 21 21 16 21 28 28 24 25 33 40 43 46 43 38 38 36 36 38 40 42 43 41 41 42 43 44 44 39 41 41 39 33 26 25 25
14 15 11 4 12 6 3 12 17 22 22 17 26 29 27 23 27 35 40 43 45 41 36 36 36 35 38 39 41 42 42 41 40 42 42 45 43 42 42 44 40 34 28 20
15 15 8 4 9 2 7 10 20 26 22 15 26 26 23 24 23 29 36 42 44 41 34 34 34 33 35 36 37 39 40 39 39 41 41 43 44 46 42 43 46 44 38 32
15 13 7 6 7 6 1 13 22 23 16 22 29 27 22 23 20 24 35 39 42 37 31 30 31 31 31 33 35 36 38 37 38 41 40 42 43 43 43 45 47 46 42 40
15 11 8 9 3 3 6 16 23 22 7 30 29 26 24 25 26 32 36 39 39 34 27 29 28 27 28 31 32 34 36 36 37 40 39 39 42 42 44 45 45 43 42 42
11 12 9 8 3 5 7 18 19 14 19 27 27 24 22 22 25 29 32 36 38 33 25 24 25 25 27 28 30 31 33 35 36 36 35 36 39 40 41 41 42 42 42 43
7 8 6 7 3 4 14 15 15 19 22 26 25 22 18 19 20 25 30 34 36 32 23 24 23 23 25 26 27 30 31 33 33 33 32 33 37 38 38 40 42 43 43 44
5 9 8 5 8 13 13 13 15 17 20 23 24 21 17 17 19 25 30 35 36 31 23 22 21 20 22 24 25 28 30 29 30 30 31 32 33 36 37 39 41 42 42 44
11 10 9 10 10 11 12 12 14 16 18 21 24 22 18 17 20 25 29 33 35 31 24 20 19 17 19 21 24 26 27 27 28 29 29 30 31 35 37 38 38 39 40 42
11 11 11 11 7 7 7 10 12 14 16 19 21 21 18 17 20 25 29 32 35 30 24 18 19 17 17 19 21 23 24 25 26 28 28 29 31 34 36 37 38 39 42 43
9 10 9 8 6 7 8 9 12 13 15 17 20 19 18 17 19 23 27 31 33 31 24 17 18 15 14 17 18 20 22 23 24 26 26 29 31 32 34 35 37 38 40 41
Wind_Direction
11 351 17 29 23 351 328 300 289 317 315 305 305 308 317 341 1 337 343 347 351 346 342 339 342 339 336 333 331 330 327 326 324 321 316 314 313 311 307 303 300 296 292 280
6 9 17 16 8 351 331 319 319 339 297 305 290 317 326 3 344 332 342 354 349 342 340 343 344 342 339 341 338 332 330 329 326 320 315 315 314 314 313 309 306 302 293 279
31 28 15 4 358 4 6 336 325 318 357 295 300 337 19 52 300 327 350 350 345 343 342 347 347 345 349 344 342 343 342 341 337 332 328 327 322 319 317 313 309 303 299 291
23 21 11 2 1 6 359 334 327 311 282 265 307 30 155 293 310 332 353 348 345 344 346 349 349 352 351 349 348 348 349 348 347 341 337 334 330 329 329 327 323 312 305 296
25 17 9 9 7 11 358 349 13 24 252 235 354 274 346 320 330 341 351 346 345 346 351 352 353 352 357 358 358 357 359 357 354 349 343 337 333 331 334 332 330 324 315 304
20 15 12 9 8 15 5 8 10 56 99 110 19 313 28 3 350 338 346 343 346 347 355 355 352 354 358 1 3 4 7 3 357 352 344 336 333 332 334 336 335 330 322 315
6 7 6 4 14 14 17 25 12 28 5 248 326 1 45 351 344 343 341 344 346 352 359 356 353 356 357 358 356 355 356 358 357 354 352 345 334 327 328 336 338 337 330 322
7 352 5 9 17 14 27 28 51 297 327 298 326 99 93 356 337 337 341 343 347 358 1 354 353 355 355 359 358 355 355 355 350 350 354 355 349 344 343 345 344 337 329 321
359 341 5 4 13 26 32 26 14 340 285 286 292 343 222 318 333 342 346 346 354 360 360 352 353 351 352 352 352 354 353 350 349 355 357 354 351 347 345 349 353 346 334 332
358 6 351 354 23 26 36 25 13 10 23 317 312 7 347 349 343 344 348 350 0 2 357 352 354 351 354 355 356 358 358 354 356 354 1 357 357 356 354 356 358 350 349 347
8 5 341 350 0 19 22 25 23 42 8 299 310 27 343 340 340 343 346 356 0 358 353 353 354 353 359 1 3 360 1 360 1 6 6 3 4 7 8 5 1 356 0 5
13 351 340 348 6 12 18 15 17 41 326 258 266 278 313 328 345 341 347 359 2 355 355 357 356 354 4 3 7 4 4 3 5 15 11 14 15 14 12 9 6 2 8 15
15 357 342 340 3 359 357 0 13 9 352 258 305 303 321 338 349 348 355 1 359 353 357 1 357 359 5 5 8 7 7 8 8 11 12 13 14 11 7 8 9 1 13 28
11 4 5 316 310 333 340 360 3 360 352 317 309 316 333 347 351 354 359 4 356 359 3 3 359 3 6 9 9 9 11 10 12 13 12 8 15 11 15 19 15 15 21 35
11 0 351 349 350 342 348 359 356 351 346 315 331 333 335 353 353 355 358 2 358 2 6 5 2 8 8 11 12 13 13 13 16 18 18 18 21 18 24 28 24 23 29 35
8 355 349 360 355 353 55 359 346 348 335 332 346 348 343 357 353 356 1 360 3 1 9 5 5 9 10 12 14 15 15 17 20 20 23 24 27 27 32 32 28 23 21 26
2 357 349 3 352 350 33 354 347 342 334 339 347 349 343 359 0 359 1 4 2 0 8 6 4 9 11 14 14 15 18 19 22 24 28 30 31 32 26 33 32 36 35 32
359 357 352 348 352 17 341 354 347 338 335 339 346 352 350 357 5 356 2 5 2 0 6 7 6 12 11 15 17 18 22 21 26 29 30 35 33 37 34 37 42 42 43 44
360 359 342 341 325 302 2 344 345 338 333 343 349 352 352 350 353 5 7 6 2 1 5 8 4 12 11 16 19 21 24 24 27 35 32 38 38 40 41 42 44 46 45 46
352 352 355 335 319 225 322 349 348 342 329 344 347 350 350 350 357 7 7 4 4 2 7 10 5 14 14 19 21 22 25 26 30 35 32 37 42 40 42 42 44 45 47 48
346 341 341 335 305 289 323 348 350 353 333 336 345 353 351 356 358 0 4 6 4 3 10 15 11 14 18 20 23 25 27 27 30 33 31 34 42 42 42 44 44 45 46 46
337 342 337 333 306 332 332 339 347 334 336 339 346 352 351 351 356 2 5 7 7 6 12 23 17 17 18 22 24 28 29 29 31 33 32 33 38 43 42 43 44 44 43 44
341 333 319 305 298 307 321 330 341 336 340 340 346 350 355 352 360 5 8 8 7 9 13 25 22 20 19 22 25 29 31 30 34 33 36 36 38 41 43 43 42 43 42 44
332 329 322 323 331 318 323 335 342 337 339 345 346 350 357 356 3 10 9 8 8 10 14 28 29 21 22 25 27 30 31 30 36 36 39 41 43 46 45 43 43 44 46 47
326 326 326 328 327 323 325 335 337 339 341 346 348 350 356 1 7 9 10 7 7 12 15 22 32 23 20 27 28 32 32 31 37 38 39 42 44 47 46 44 43 44 46 46
323 333 335 337 332 316 328 334 337 341 343 348 349 353 354 4 7 11 11 9 8 13 18 16 36 28 21 27 30 32 34 34 38 42 42 44 45 47 47 45 45 45 46 47